Location: Unspecified
(0.0000°N, 0.0000°E)
Time: 04:49:27
(UTC+02:00)

Cosmos 2263 Rocket - Visible Passes

Search period start: 26 April 2015 00:00
Search period end: 06 May 2015 00:00
Orbit: 825 x 848 km, 71.0° (Epoch: 24 April)

Date Brightness Start Highest point End Pass type
(mag) Time Alt. Az. Time Alt. Az. Time Alt. Az.
26 Apr 2.4 06:05:58 10° N 06:11:28 69° ENE 06:17:02 10° SSE visible
27 Apr 2.5 05:49:22 10° N 05:54:49 61° ENE 06:00:21 10° SSE visible
28 Apr 4.0 05:41:49 21° SE 05:41:49 21° SE 05:43:38 10° SSE visible
